User: anonymous   Login
Location: Unspecified
(0.0000°N, 0.0000°E)
Time: 10:18:21
(UTC+00:00)
Language:

Kosmos-2154 - Orbit

View from above orbital plane
View from above orbital plane
View from above satellite
View from above satellite

Ground track
Ground track

The orbit data is extracted from the following two-line orbital elements,

1 21666U 91059A   18232.53733084  .00000028  00000-0  14352-4 0  9993
2 21666  82.9039  71.1995 0023911 234.2041 154.7731 13.73313011352874
Epoch (UTC): 20 August 2018 12:53:45
Eccentricity: 0.0023911
inclination: 82.9039°
perigee height: 970 km
apogee height: 1005 km
right ascension of ascending node: 71.1995°
argument of perigee: 234.2041°
revolutions per day: 13.73313011
mean anomaly at epoch: 154.7731°
orbit number at epoch: 35287

The dashed part of the orbit path shows where the satellite is in the earth's shadow,  

DLR